Regional Weather Roundup
Issued by NWS

Home | Current Version | Previous Version | Text Only | Print | Product List | Glossary On
Versions: 1 2 3 4 5 6 7 8 9 10 11 12 13 14 15 16 17 18 19 20 21 22 23 24 25 26 27 28 29 30 31 32 33 34 35 36 37 38 39 40 41 42 43 44 45 46 47 48 49 50
195
ASUS43 KMKX 272211
RWRWI

WISCONSIN REGIONAL WEATHER ROUNDUP
NATIONAL WEATHER SERVICE MILWAUKEE/SULLIVAN WI
500 PM CDT FRI MAY 27 2016

NOTE: "FAIR" INDICATES FEW OR NO CLOUDS BELOW 12,000 FEET WITH NO
SIGNIFICANT WEATHER AND/OR OBSTRUCTIONS TO VISIBILITY.

WIZ001-002-006>008-014>016-023>028-272300-
NORTHWEST WISCONSIN

CITY           SKY/WX    TMP DP  RH WIND       PRES   REMARKS
SUPERIOR ARPT  RAIN      45  45 100 NE5       29.87F
ASHLAND        LGT RAIN  50  49  96 NE12      29.87F FOG
HAYWARD        LGT RAIN  64  61  90 NE8       29.80F
SIREN          LGT RAIN  63  60  91 NE8       29.79F
CUMBERLAND     CLOUDY    63  59  88 NE9       29.78F
RICE LAKE      HVY RAIN  63  60  92 NE12      29.78F
CHETEK         HVY RAIN  63  63  99 N8        29.77F
LADYSMITH      LGT RAIN  65  62  90 CALM      29.80S
EAU CLAIRE     CLOUDY    67  65  93 NE7       29.73F
MENOMONIE      RAIN      65  65  99 CALM      29.75S
NEW RICHMOND   CLOUDY    68  64  86 E3        29.77R
OSCEOLA        LGT RAIN  66  66 100 N3        29.79S
$$

WIZ003>005-009-010-017-018-272300-
NORTH CENTRAL WISCONSIN

CITY           SKY/WX    TMP DP  RH WIND       PRES   REMARKS
MANITOWISH WTR NOT AVBL
ARBOR VITAE    CLOUDY    69  63  80 E3        29.83F
WOODRUFF       CLOUDY    69  63  80 E3        29.83F
RHINELANDER    LGT RAIN  71  57  61 SE13      29.84F
EAGLE RIVER      N/A     71  57  61 SE10      29.84S
LAND O LAKES   CLOUDY    71  58  63 SE10      29.86S
PHILLIPS       CLOUDY    65  63  91 NE5       29.80F
TOMAHAWK       CLOUDY    70  59  68 SE6       29.83S
MEDFORD        PTSUNNY   70  63  77 SE9G17    29.78F
MERRILL        CLOUDY    72  63  74 SE12G17   29.82F
$$

WIZ029-030-035-036-043>047-272300-
CENTRAL WISCONSIN

CITY           SKY/WX    TMP DP  RH WIND       PRES   REMARKS
WAUSAU         CLOUDY    73  62  68 E15       29.79F
MOSINEE        PTSUNNY   70  64  83 E8        29.82F
MARSHFIELD     CLOUDY    73  63  70 E6        29.77F
STEVENS POINT  RAIN      69  65  86 E7        29.81S
WAUPACA        DRIZZLE   73  70  89 E3        29.81S
WAUTOMA        RAIN      70  68  93 SW6       29.81R
WISC RAPIDS    HVY RAIN  69  65  86 SE10      29.80F VSB 1
CAMP DOUGLAS   CLOUDY    72  72 100 E10       29.76F
$$

WIZ011>013-019>022-031-037>040-048>050-272300-
NORTHEAST WISCONSIN

CITY           SKY/WX    TMP DP  RH WIND       PRES   REMARKS
ANTIGO         CLOUDY    66  63  91 E17       29.85S
SHAWANO        CLOUDY    70  65  85 E6        29.84S
OCONTO         CLOUDY   N/A N/A N/A E7        29.84S
STURGEON BAY   NOT AVBL
GREEN BAY      PTSUNNY   70  66  87 NE6       29.83S FOG
MANITOWOC      LGT RAIN  58  56  93 SE5       29.86F FOG
APPLETON       CLOUDY    73  64  73 E8        29.82R
CLINTONVILLE   PTSUNNY   70  64  83 E7        29.82S
OSHKOSH        PTSUNNY   70  66  87 E6        29.81F
$$

WIZ032>034-041-042-053>061-272300-
SOUTHWEST WISCONSIN

CITY           SKY/WX    TMP DP  RH WIND       PRES   REMARKS
LA CROSSE      PTSUNNY   76  64  66 S9        29.73F
SPARTA         PTSUNNY   77  65  65 E9        29.75F
VIROQUA        PTSUNNY   74  64  70 S10       29.76F
BOSCOBEL       PTSUNNY   79  64  60 S8G20     29.73F HX  81
PRAIRIE DU CHI CLOUDY    75  63  65 SE5       29.72F
PLATTEVILLE    PTSUNNY   76  69  77 S16       29.76F
$$

WIZ056-057-062-063-064-067-068-272300-
SOUTH CENTRAL WISCONSIN

CITY           SKY/WX    TMP DP  RH WIND       PRES   REMARKS
REEDSBURG      CLOUDY    70  69  97 E5        29.77F
BARABOO/DELLS  CLOUDY    71  67  88 CALM      29.78F
LONE ROCK      CLOUDY    76  68  76 VRB3      29.75F
MINERAL POINT  CLOUDY    75  66  73 S12       29.77F
MADISON        CLOUDY    74  66  76 VRB6      29.77S
MIDDLETON      CLOUDY    73  64  73 SW14      29.79F
WATERTOWN      CLOUDY    69  68  98 SW9       29.80R
MONROE         CLOUDY    70  64  83 S17G23    29.79F
JANESVILLE     CLOUDY    72  68  88 S12       29.80F
$$

WIZ051-052-058>065-066-070>072-272300-
SOUTHEAST WISCONSIN

CITY           SKY/WX    TMP DP  RH WIND       PRES   REMARKS
MILWAUKEE      CLOUDY    69  65  86 SE10      29.83S
WAUKESHA       PTSUNNY   72  64  78 SE12      29.83S
MILWAUKEE/TIMM CLOUDY    72  63  73 SE8       29.83S
RACINE         LGT RAIN  67  62  84 S16G26    29.86R
BURLINGTON     LGT RAIN  69  65  88 S10G25    29.83R
KENOSHA        CLOUDY    70  66  87 SE8       29.83S
FOND DU LAC    PTSUNNY   73  70  90 E9        29.80F
SHEBOYGAN      PTSUNNY   69  62  78 S9        29.84F
WEST BEND      RAIN      70  63  78 SE12G20   29.83R
JUNEAU         LGT RAIN  74  64  72 S13       29.81R
$$

LSZ147-162-272300-
LAKE SUPERIOR

STATION/POSITION TIME  TEMP    WIND        PRES    WAVE
                       AIR SEA DIR/SP/G            HT/PER
                 (UTC) (F)     (DEG/KT/KT) (MB)    (FT/S)
W MID LAKE BUOY  2150   42 38   60/ 12/ 14 1011.9F   1
DEVILS ISLAND    2200   48      90/  4/  5 1012.7R
SAXON HARBOR     2100   46      20/  3/  5 1011.2
$$

LMZ867-665-643>646-272300-
LAKE MICHIGAN

STATION/POSITION TIME  TEMP    WIND        PRES    WAVE
                       AIR SEA DIR/SP/G            HT/PER
                 (UTC) (F)     (DEG/KT/KT) (MB)    (FT/S)
CHAMBERS ISLAND  2100   62      60/  3/  5 1011.9F
N MID LAKE BUOY  2150   50 47  360/  4/  8 1012.6F   0
NORTHPORT PIER   2100   55     120/  2/  4 1012.9R
SISTER BAY       2104   61     150/  7/  9   N/A
ALGOMA LAKESHORE 2117           70/  9/ 10   N/A
KEWAUNEE LAKESHO 2100   52      60/  2/  3 1010.9F
SHEBOYGAN LAKESH 2200   57     180/  6/  7 1010.6F
PORT WASHINGTON  2100   62     190/  2/  6 1011.2
S MID LAKE BUOY  2150   57 51  100/ 10/ 12 1010.3F   0
KENOSHA   LAKESH 2200   59     180/  9/ 18 1010.5R
$$

TC  - TEMPERATURE IN CELSIUS
VSB - VISIBILITY IN STATUTE MILES
WCI - WIND CHILL INDEX
HX  - HEAT INDEX





USA.gov is the U.S. government's official web portal to all federal, state and local government web resources and services.